Lapse_Rate
7.1 6.8 6.7 6.9 6.2 6.1 6.2 6.4 6.8 7.4 7.3 7.4 7.7 7.6 7.4 6.9 6.5 6.2 5.8 5.5 5.4 5.4 5.1 5.2 5.5 5.3 5.4 5.0 5.0 5.0 5.0 4.8 4.8 4.5 4.8 4.8 4.8 4.9 5.1 4.9 4.9 5.1 5.1
6.9 7.1 6.7 6.3 6.0 5.9 6.0 6.3 7.2 7.1 7.4 7.3 7.6 7.7 7.5 7.2 6.6 6.0 5.7 5.6 5.4 5.4 5.4 5.3 5.1 5.4 5.4 5.0 5.0 5.0 5.1 5.2 4.8 5.2 5.0 5.0 5.2 5.2 5.2 5.3 5.1 5.0 5.0
6.7 6.9 6.6 6.2 6.0 5.6 5.8 6.2 6.8 6.7 7.1 7.0 7.4 7.6 7.6 7.4 6.8 6.0 5.7 5.6 5.7 5.9 5.6 5.3 5.2 5.1 5.2 5.2 5.3 5.3 5.2 5.1 5.2 5.2 5.5 5.5 5.5 5.4 5.5 5.5 5.4 5.3 5.4
5.8 6.1 6.2 6.1 5.8 5.4 5.7 6.3 6.8 6.4 7.0 7.1 7.2 7.5 7.6 7.4 7.1 6.4 6.0 5.8 5.9 5.9 5.7 5.5 5.4 5.3 5.3 5.4 5.4 5.6 5.4 5.6 5.5 5.5 5.4 5.4 5.3 5.2 5.4 5.5 5.6 5.5 5.4
5.9 5.8 5.6 5.5 5.3 5.6 6.2 6.1 6.2 6.0 6.3 6.5 6.7 7.4 7.7 7.7 7.5 6.9 5.8 5.6 5.7 5.9 5.7 5.6 5.6 5.5 5.2 5.3 5.3 5.5 5.4 5.6 5.3 5.3 5.2 5.4 5.4 5.3 5.4 5.3 5.4 5.4 5.4
5.6 5.6 5.7 5.5 5.6 5.7 5.9 6.1 6.3 6.1 6.5 6.5 6.7 7.3 7.7 7.7 7.5 7.0 5.9 5.7 5.8 5.5 5.9 5.6 5.6 5.6 5.6 5.7 5.7 5.6 5.5 5.7 5.6 5.4 5.5 5.6 5.6 5.5 5.4 5.5 5.6 5.7 5.7
5.7 5.6 5.8 5.7 5.7 5.9 6.0 5.6 5.7 5.4 6.7 6.7 6.8 7.2 7.5 7.8 7.5 7.1 6.4 5.6 5.6 5.8 5.9 5.9 5.7 5.6 5.6 5.7 5.6 5.7 5.7 5.6 5.5 5.7 5.5 5.6 5.5 5.5 5.6 5.5 5.4 5.8 6.0
5.4 5.6 5.6 5.6 5.5 5.7 5.7 6.1 5.5 5.9 6.2 6.1 6.2 6.7 7.2 7.5 7.4 7.1 6.8 5.8 5.6 5.5 6.1 6.0 5.8 5.9 5.9 5.8 5.8 5.4 5.4 5.4 5.4 5.3 5.5 5.4 5.6 5.5 5.5 5.6 5.9 5.6 5.6
5.0 4.8 5.3 5.4 5.6 5.6 5.5 5.7 5.2 6.0 5.5 6.3 6.4 6.5 6.8 7.3 7.2 6.8 6.4 5.7 5.6 5.7 5.4 5.7 5.7 5.8 5.8 5.9 5.6 5.6 5.6 5.6 5.5 5.5 5.7 5.6 5.2 5.6 5.6 5.5 5.7 5.7 5.9
5.1 4.8 4.5 4.7 5.0 5.1 4.8 5.3 5.6 5.9 5.3 5.9 5.6 6.5 6.4 6.3 6.3 6.0 6.2 6.1 6.0 5.7 5.7 5.7 5.6 5.4 5.6 5.8 5.6 5.8 6.0 5.9 5.7 5.7 5.7 5.9 5.7 5.8 5.7 5.9 6.0 5.8 5.9
5.0 5.1 4.7 4.5 4.6 4.9 4.9 4.8 4.7 5.2 5.5 5.7 4.8 6.1 6.3 6.0 6.2 6.2 6.2 6.0 5.9 6.0 5.7 5.8 5.6 5.5 5.8 5.7 5.8 5.8 5.8 5.8 5.6 5.4 5.4 5.4 5.7 5.7 5.6 5.6 5.7 5.8 5.8
5.6 5.4 5.2 5.0 5.0 4.6 4.4 4.6 4.8 4.7 4.4 4.4 4.3 5.0 5.5 5.6 6.0 6.1 6.0 6.2 6.0 5.8 5.6 5.7 5.6 5.5 5.5 5.6 5.4 5.8 5.5 5.5 6.0 5.6 5.6 5.2 5.1 5.4 5.2 5.6 5.4 5.6 5.4
5.6 5.6 5.8 5.7 5.4 5.2 5.1 4.9 4.6 4.6 4.6 4.5 4.6 4.5 4.1 4.3 5.1 4.8 4.6 4.6 4.7 4.6 5.1 4.9 5.0 5.2 5.3 4.9 5.3 5.2 5.3 4.6 4.6 5.0 5.2 5.4 5.1 5.1 5.1 5.0 5.1 5.1 5.0
5.6 5.5 5.8 6.2 6.1 5.9 5.6 5.5 5.0 5.2 4.9 4.4 4.6 4.7 4.4 4.4 4.3 4.4 4.8 4.6 4.6 4.5 4.2 4.0 4.1 3.8 3.7 3.8 4.0 4.0 4.3 4.5 4.8 5.3 5.1 4.9 4.8 4.8 4.7 4.4 4.5 4.5 4.5
5.7 5.7 5.6 5.7 6.1 6.1 5.9 6.0 5.9 5.8 5.7 5.5 5.1 4.9 4.9 4.7 4.7 4.6 4.7 4.6 4.5 4.5 4.3 4.3 4.4 4.5 4.6 4.4 3.9 4.0 4.4 4.3 4.5 4.7 4.5 4.5 4.1 4.0 3.7 3.9 4.5 5.0 4.9
5.8 5.9 5.9 5.8 5.6 5.7 5.8 5.7 5.6 5.5 5.5 5.7 5.6 5.4 5.1 4.8 4.8 4.9 5.0 5.0 4.9 4.6 4.5 4.6 4.7 4.7 4.6 4.6 4.5 4.6 4.5 4.6 4.3 4.4 4.5 4.5 4.5 4.6 4.8 4.9 4.7 4.5 4.6
6.0 5.9 5.8 5.8 5.8 5.6 5.5 5.5 5.6 5.5 5.4 5.2 5.0 5.0 5.1 4.9 4.9 4.8 4.6 4.4 4.6 4.6 4.6 4.5 4.5 4.5 4.4 4.6 4.4 4.4 4.5 4.5 4.3 4.4 4.3 4.4 4.3 4.3 4.3 4.4 4.5 4.9 4.9
5.7 5.7 5.6 5.5 5.5 5.5 5.4 5.5 5.5 5.5 5.6 5.4 5.3 5.1 5.1 5.0 4.9 4.9 4.8 4.9 4.9 4.9 4.8 4.5 4.4 4.3 4.3 4.2 4.1 4.2 4.2 4.3 4.5 4.6 4.6 4.7 4.7 4.7 4.8 4.8 4.7 4.6 4.4
5.6 5.5 5.5 5.5 5.3 5.2 5.1 5.0 5.0 5.0 5.0 4.9 4.9 4.9 4.9 4.8 4.8 4.7 4.6 4.7 4.7 4.7 4.7 4.8 4.9 4.8 4.8 4.7 4.8 4.8 4.8 4.8 4.9 4.8 4.7 4.7 4.5 4.4 4.3 4.2 4.2 4.1 4.0
5.3 5.2 5.1 5.0 5.0 5.0 4.8 4.8 4.7 4.7 4.7 4.7 4.6 4.5 4.5 4.5 4.6 4.7 4.6 4.6 4.6 4.6 4.6 4.6 4.6 4.5 4.5 4.5 4.4 4.4 4.4 4.4 4.3 4.2 4.1 4.0 4.0 4.1 4.1 4.0 3.8 3.6 3.5
5.1 4.9 4.7 4.5 4.5 4.5 4.5 4.4 4.4 4.4 4.4 4.4 4.4 4.4 4.3 4.3 4.3 4.2 4.2 4.1 4.1 4.1 4.2 4.2 4.2 4.2 4.2 4.1 4.1 4.0 3.9 3.9 3.8 3.8 3.8 3.8 3.7 3.5 3.5 3.5 3.4 3.3 3.3
4.8 4.8 4.7 4.5 4.4 4.3 4.3 4.3 4.3 4.1 4.0 4.0 4.0 3.9 3.9 3.8 3.9 4.0 4.0 4.0 3.9 3.9 3.9 3.9 3.9 3.9 3.8 3.8 3.8 3.7 3.6 3.6 3.6 3.5 3.4 3.4 3.3 3.3 3.3 3.3 3.3 3.4 3.5
4.1 4.3 4.6 4.7 4.6 4.4 4.3 4.2 4.1 4.2 4.1 4.0 3.9 3.9 3.9 3.8 3.8 3.8 3.8 3.8 3.8 3.9 3.8 3.7 3.7 3.7 3.7 3.7 3.6 3.5 3.5 3.6 3.5 3.5 3.4 3.4 3.4 3.4 3.4 3.4 3.3 3.3 3.2
4.3 4.4 4.4 4.5 4.6 4.7 4.6 4.4 4.3 4.2 4.2 4.2 4.1 4.0 3.9 3.9 3.9 3.9 3.8 3.8 3.8 3.9 3.9 3.8 3.6 3.7 3.7 3.6 3.6 3.6 3.6 3.5 3.4 3.4 3.3 3.2 3.2 3.2 3.1 3.1 3.1 3.1 3.2
4.6 4.6 4.5 4.5 4.5 4.5 4.6 4.6 4.6 4.5 4.4 4.3 4.3 4.2 4.0 3.9 3.8 3.9 3.9 3.8 3.6 3.5 3.6 3.7 3.9 3.9 3.7 3.6 3.6 3.5 3.4 3.4 3.3 3.3 3.2 3.2 3.1 3.1 3.1 3.1 3.2 3.4 3.5
5.0 5.0 4.9 4.9 4.8 4.7 4.6 4.6 4.6 4.6 4.6 4.6 4.5 4.4 4.3 4.1 4.0 3.9 3.8 3.8 3.9 3.8 3.7 3.6 3.4 3.4 3.4 3.5 3.5 3.5 3.5 3.5 3.5 3.5 3.5 3.5 3.5 3.5 3.6 3.6 3.7 3.7 3.7
Wind_Speed
15 11 3 4 6 8 10 11 12 12 12 11 11 10 9 9 8 9 8 9 11 9 11 13 14 12 8 6 4 3 2 1 3 2 2 2 4 5 6 14 13 15 15
14 14 5 2 3 6 8 10 12 12 11 11 10 10 8 7 7 8 8 7 12 12 10 14 11 9 10 8 6 7 7 6 3 6 5 4 4 4 5 4 7 13 14
17 17 15 14 4 6 9 11 11 11 10 9 9 10 9 9 8 5 7 7 6 10 13 10 11 11 11 7 8 7 6 5 4 4 4 2 4 1 4 3 4 5 9
16 16 16 15 14 8 7 11 12 11 12 11 10 9 8 8 8 8 6 6 7 6 5 8 10 11 11 10 8 8 5 5 4 3 5 3 2 3 3 3 3 3 3
15 16 17 15 15 15 12 8 9 9 10 11 9 6 6 4 2 3 7 7 7 7 7 7 7 10 11 10 7 7 6 5 3 5 3 3 3 3 4 3 4 2 3
14 15 14 17 16 14 16 10 11 10 9 12 10 8 7 4 6 5 3 7 8 8 8 7 5 6 6 7 11 12 1 8 8 6 6 4 4 2 2 1 2 3 3
16 16 15 15 17 16 15 15 13 11 10 11 12 10 9 7 7 3 5 5 7 6 5 4 6 4 7 9 14 16 14 13 6 2 5 2 3 2 2 1 1 1 2
15 17 16 15 15 15 16 14 14 11 12 9 10 10 10 10 16 13 14 11 9 9 8 7 6 5 3 8 8 10 10 10 7 5 7 6 4 1 2 2 2 4 4
15 15 16 15 14 14 13 15 13 11 14 12 11 11 12 12 16 15 11 11 11 11 10 8 6 4 6 13 11 11 11 11 18 23 23 20 17 14 4 4 2 3 2
14 13 13 14 14 13 12 12 12 10 12 11 11 12 16 12 20 20 14 7 11 9 9 10 16 11 14 13 11 10 11 7 7 8 6 11 16 15 17 7 1 1 3
11 12 13 13 12 13 12 11 9 10 11 12 9 12 14 14 15 24 21 10 8 9 9 9 8 19 21 20 16 8 9 8 9 8 7 7 8 9 7 12 9 3 3
10 10 11 11 10 9 10 9 11 10 8 8 10 11 9 12 21 24 24 19 15 11 9 8 10 23 25 22 15 19 17 11 7 7 8 6 5 5 4 8 11 14 14
10 11 11 11 11 10 10 9 8 9 8 8 8 7 6 7 10 21 22 20 17 11 9 15 21 22 21 17 22 16 13 8 6 8 6 4 1 0 4 4 9 13 15
7 9 9 10 11 11 9 9 8 7 7 7 7 7 7 7 7 6 6 7 14 11 10 10 12 12 15 12 9 10 9 6 5 5 4 3 3 5 4 1 1 2 4
8 6 7 6 8 9 10 9 8 9 9 7 6 6 5 7 8 11 10 6 6 8 8 8 8 8 9 8 7 9 7 6 6 5 5 5 5 5 5 4 4 4 4
8 6 6 4 5 5 5 7 20 17 20 22 21 9 8 14 17 17 17 17 16 13 8 7 7 7 7 6 5 6 7 7 6 6 6 5 5 4 4 4 4 3 4
6 6 5 6 3 3 3 4 5 8 17 21 19 19 19 15 17 17 18 18 16 14 8 6 6 6 6 6 5 5 6 5 6 6 5 4 4 4 5 5 4 4 4
5 6 4 3 3 3 2 3 3 3 3 4 11 14 17 17 15 14 13 13 8 9 7 7 6 6 5 6 6 5 6 6 6 6 6 4 4 4 4 4 4 3 3
4 4 4 3 3 3 4 4 3 4 3 3 3 6 9 15 16 18 17 7 6 7 6 7 6 6 6 6 5 5 6 6 4 4 4 4 3 3 4 4 3 5 4
4 5 5 3 3 3 3 3 3 3 3 3 4 3 3 5 6 6 6 6 7 6 6 6 6 5 5 5 4 4 5 5 5 5 4 4 4 3 3 2 2 2 2
2 2 4 3 3 3 2 3 2 3 3 4 3 2 6 6 4 4 5 5 5 5 4 5 4 5 5 5 5 5 5 4 4 4 4 4 4 3 2 2 3 2 2
3 2 3 2 2 3 3 2 2 3 3 4 2 4 7 4 4 4 4 3 3 5 7 5 4 5 6 5 4 3 3 3 3 4 4 3 3 3 3 2 3 3 2
3 3 3 2 2 3 3 3 3 2 3 3 2 3 3 3 3 3 3 2 6 9 13 14 10 8 14 15 14 12 4 2 4 6 2 3 3 3 2 2 3 3 3
3 4 4 3 3 2 3 2 2 3 3 3 3 3 3 2 3 3 2 4 8 8 11 13 13 12 12 12 12 11 11 9 10 10 8 4 3 4 3 2 2 2 1
3 3 3 3 3 3 3 3 3 2 2 2 2 2 2 2 3 3 3 6 7 6 6 7 9 11 11 9 8 8 7 8 8 9 9 7 4 4 1 1 2 2 2
3 3 2 2 2 2 3 2 2 2 2 2 2 2 2 3 3 3 2 5 5 6 6 6 10 10 9 7 5 5 6 6 7 7 7 6 3 2 2 1 2 1 1
Wind_Direction
330 319 141 166 216 186 185 178 173 169 165 168 173 174 187 197 200 210 207 199 191 177 176 176 174 172 174 151 158 151 238 138 147 195 194 224 200 209 213 213 220 220 228
345 348 21 339 216 198 177 172 167 167 165 165 171 172 182 192 187 206 201 196 198 193 176 174 173 163 172 172 184 189 197 211 148 191 199 189 204 197 229 199 216 222 224
4 7 6 2 301 209 183 168 163 160 155 159 171 175 184 192 182 195 199 176 163 187 178 173 171 174 186 185 201 208 201 194 194 179 195 167 191 179 242 213 211 222 230
7 13 8 3 351 340 192 169 161 170 149 166 173 176 182 181 179 192 191 182 162 158 168 176 171 184 193 192 197 203 190 190 179 196 227 184 173 198 200 207 244 202 234
12 20 11 5 4 3 344 163 160 164 168 163 155 153 158 147 73 207 190 189 183 173 173 187 193 192 193 193 189 196 182 188 178 204 212 171 175 183 196 203 218 218 89
15 26 15 18 14 6 10 357 70 74 70 85 77 79 71 75 8 10 325 189 185 189 180 181 181 192 104 109 107 74 150 204 216 215 209 199 193 169 68 128 210 174 198
13 15 21 29 23 16 20 11 41 60 78 73 77 76 65 40 18 48 69 65 77 65 60 81 106 69 106 110 96 94 69 60 45 180 199 137 144 113 105 32 261 56 84
19 14 15 24 36 23 28 22 35 32 41 56 67 72 74 51 52 59 83 83 74 63 57 59 79 81 53 125 108 88 75 57 48 64 82 99 93 132 199 76 96 109 94
17 18 14 14 27 37 23 29 35 35 44 27 42 50 67 61 60 62 71 83 77 61 53 50 71 77 110 118 108 101 93 79 71 77 78 74 65 56 86 136 135 132 107
12 9 18 16 24 21 28 26 35 37 42 58 20 41 44 62 68 66 72 76 77 71 50 44 46 75 98 105 107 111 96 87 82 74 64 58 48 45 51 53 100 193 116
7 17 17 24 20 23 27 20 37 39 48 48 48 44 42 39 56 76 73 72 75 76 65 48 46 74 80 83 84 89 97 110 90 80 74 62 60 42 34 47 36 87 107
16 23 24 20 29 25 28 25 32 42 47 49 60 40 36 50 57 62 72 77 79 84 75 67 58 68 76 77 83 86 83 83 78 72 65 57 55 70 44 54 49 56 57
29 25 28 29 31 33 36 29 39 35 27 30 45 64 36 44 52 59 67 66 68 78 81 82 63 50 56 62 63 73 70 68 79 91 84 69 57 226 60 38 47 62 59
43 36 31 35 39 37 39 39 38 39 40 43 42 43 45 51 50 48 47 64 70 74 71 63 72 77 63 56 48 49 63 57 59 73 77 40 23 44 39 333 93 42 58
26 37 40 39 40 43 47 45 44 50 51 49 39 45 46 63 64 68 74 67 65 64 69 66 65 57 57 54 47 41 54 48 50 50 59 59 47 47 37 24 36 54 73
32 20 22 52 41 41 46 52 50 54 51 50 48 46 50 68 75 76 77 79 79 75 70 70 66 67 71 58 56 67 52 45 35 53 51 51 59 45 50 40 49 63 77
19 17 19 26 45 64 36 44 42 16 44 44 45 50 53 70 65 70 76 75 74 75 73 69 71 67 63 68 61 55 64 52 52 53 52 44 52 60 56 50 41 54 65
6 18 27 12 28 44 62 39 41 35 16 0 21 40 54 58 63 70 79 73 59 54 64 63 62 56 60 68 61 60 56 48 46 51 50 41 39 55 53 51 50 42 32
6 22 21 18 21 44 69 64 57 49 35 13 1 28 29 58 60 56 56 61 67 58 56 60 53 54 51 55 59 60 57 49 39 40 30 44 21 58 48 39 60 50 44
350 31 47 37 24 40 57 78 64 59 45 37 42 357 352 42 43 38 38 45 55 53 50 54 48 50 51 60 46 45 54 45 38 32 22 20 17 38 55 37 55 77 52
351 35 36 32 35 40 61 90 95 89 74 63 47 25 54 75 51 40 42 39 52 57 54 61 45 45 47 50 55 53 54 42 33 19 14 16 17 30 355 53 45 47 49
2 38 31 37 30 44 39 70 90 93 80 86 43 58 62 70 74 74 62 54 42 62 64 73 66 61 57 64 72 81 70 58 35 23 15 6 18 22 4 33 41 32 31
6 34 30 26 57 62 47 62 85 91 98 94 84 83 69 72 67 71 74 63 77 85 89 88 84 82 87 85 80 82 84 68 51 42 38 11 7 4 6 21 26 23 25
26 24 34 41 32 51 77 68 70 86 101 101 98 103 108 121 113 99 88 90 90 92 97 94 103 110 100 88 81 72 62 49 39 36 30 35 13 7 25 32 28 20 15
24 50 51 42 44 45 46 38 66 68 70 77 83 92 105 109 100 84 71 77 83 119 118 109 114 125 115 99 82 67 45 28 32 23 25 27 26 8 352 26 8 354 8
28 33 46 62 65 58 85 73 50 68 92 89 103 113 114 116 122 119 105 86 86 109 127 95 136 137 135 125 105 58 36 36 26 16 10 24 32 0 358 348 32 24 310